Wind_Speed
3 2 2 1 4 5 4 2 1 3 4 7 8 8 16 22 25 32 29 31 23 8 19 17 19 12 18 24 33 37 43 46 48 47 43 38 36 33 35 42 42 43 40 36
5 5 4 3 4 5 7 5 6 6 1 6 12 17 22 21 23 26 26 28 28 25 12 23 25 17 14 27 31 30 34 39 42 42 46 43 38 38 36 35 41 44 45 44
4 6 7 5 6 5 2 1 3 4 4 12 10 18 16 19 21 23 25 26 26 25 22 19 23 20 13 8 24 36 27 30 34 38 44 43 40 40 39 38 37 40 45 48
1 5 2 4 7 8 1 7 8 6 9 12 13 20 7 11 20 25 26 27 27 26 22 15 14 19 16 6 4 24 28 27 30 34 40 40 40 40 39 37 38 40 41 44
3 2 5 2 5 5 4 2 7 6 10 13 26 24 14 14 21 27 27 27 28 26 24 23 16 20 20 11 3 4 16 24 27 34 38 39 40 41 38 35 35 38 40 42
2 3 4 0 5 13 3 5 7 14 9 9 8 5 7 21 31 34 31 29 29 29 28 25 23 18 19 19 10 9 10 18 20 33 39 39 38 37 38 34 34 34 36 37
3 3 3 3 14 11 5 2 14 12 19 17 10 11 32 38 38 35 36 35 32 30 31 27 26 25 20 18 20 15 10 11 20 20 30 36 36 37 34 31 32 35 37 36
2 1 6 7 5 1 8 17 16 23 23 22 22 19 24 35 39 38 37 36 34 34 32 32 28 29 27 23 19 21 16 8 7 14 25 27 29 30 31 29 35 34 36 40
7 5 3 1 4 7 8 14 20 24 24 24 29 24 23 34 33 32 33 35 33 35 35 36 32 28 33 29 26 23 19 17 17 14 16 26 28 30 31 33 35 36 39 41
3 4 6 9 11 7 11 17 22 27 26 24 30 27 27 27 24 24 25 32 32 30 35 36 37 31 31 36 31 27 25 24 20 22 17 16 22 23 25 34 38 39 40 43
4 15 20 17 11 11 15 17 22 27 24 24 23 28 26 24 21 22 26 31 33 31 33 36 34 35 31 36 36 34 28 27 24 25 21 17 18 20 25 29 35 39 42 42
6 11 8 10 8 11 17 15 20 25 29 23 23 26 27 24 24 25 26 26 33 34 32 35 33 32 32 34 37 38 34 31 27 26 24 19 17 24 24 27 32 40 42 43
6 3 11 15 18 18 17 18 19 22 26 24 25 24 24 25 28 33 30 26 19 28 30 30 30 33 32 33 35 41 36 35 32 28 26 23 26 23 31 30 34 40 42 45
14 17 17 13 12 14 18 22 21 21 25 25 24 19 20 23 22 26 26 24 20 17 24 29 33 34 32 31 32 35 37 32 34 29 24 26 28 27 28 33 40 39 42 41
16 16 18 16 18 16 14 15 17 18 20 21 20 20 20 20 22 23 21 21 20 18 23 24 31 31 30 29 31 30 34 35 33 32 28 27 29 28 29 37 38 40 39 38
7 12 17 17 18 16 14 15 15 16 22 24 24 24 23 17 21 20 18 18 18 19 22 22 29 27 30 28 28 32 33 35 32 30 31 30 29 32 33 38 36 40 43 37
11 12 9 12 12 13 15 17 16 16 22 24 30 27 30 21 21 20 17 17 18 17 19 21 26 27 25 26 28 31 34 34 29 32 34 34 36 35 33 34 34 36 36 35
17 14 13 11 13 15 18 15 15 15 19 24 27 29 26 22 21 23 23 18 20 16 17 20 21 21 21 22 26 29 34 34 34 33 33 33 34 31 31 31 35 35 34 31
16 19 18 14 10 12 14 15 13 13 18 18 22 21 18 18 19 24 18 15 17 20 16 14 14 15 17 19 24 26 30 35 36 37 29 31 33 30 29 30 35 38 37 34
15 15 17 14 11 12 14 12 10 9 14 15 19 25 23 20 24 27 25 21 18 19 18 12 11 12 14 16 19 20 23 28 29 32 32 34 30 30 27 27 33 35 36 33
16 14 14 12 14 11 7 6 8 6 9 9 17 20 25 27 28 26 29 31 25 19 14 11 7 5 7 11 14 17 18 19 23 26 29 29 32 33 30 27 31 35 35 36
13 12 10 11 13 13 7 6 7 4 4 7 13 19 22 27 27 27 30 30 30 23 18 15 11 7 4 1 6 6 8 11 14 14 16 25 30 30 26 32 35 35 38 39
15 13 13 12 11 11 8 7 3 3 3 9 8 12 18 21 26 30 31 35 32 34 24 21 15 17 15 11 13 13 14 11 10 13 12 15 21 22 29 32 33 35 34 33
21 14 11 12 12 9 9 7 2 2 2 6 6 10 14 17 19 19 27 22 28 42 39 28 21 22 22 26 26 24 22 23 21 13 16 20 22 28 26 22 24 27 26 27
9 10 9 8 5 9 9 7 3 5 3 2 7 9 12 16 17 17 15 26 27 27 40 44 37 29 28 29 30 30 28 25 22 20 19 24 17 38 36 32 30 29 27 25
7 7 11 8 6 6 9 6 4 5 2 2 3 6 7 11 14 15 17 14 21 24 25 35 41 42 38 35 35 34 34 36 32 26 20 22 32 38 36 33 29 29 28 24
4 5 6 6 4 13 10 7 4 3 2 2 5 8 8 9 12 13 16 17 14 18 23 21 25 35 39 42 43 40 38 36 33 31 30 34 31 33 32 29 26 25 24 21
Wind_Direction
146 250 10 285 70 61 85 199 262 281 344 310 325 331 13 41 38 61 60 47 51 58 40 21 1 299 244 244 232 232 235 239 240 240 239 238 237 238 238 235 234 234 236 241
351 10 32 266 222 198 197 201 251 281 255 309 11 22 34 35 32 28 30 34 36 36 25 24 17 344 286 231 233 228 231 238 243 246 244 242 242 240 238 241 238 236 237 239
308 340 340 1 48 61 69 321 262 259 10 4 11 4 17 19 20 13 12 13 17 21 17 18 360 1 317 312 214 225 231 234 239 241 244 245 247 245 243 242 243 243 240 240
165 20 347 233 41 58 118 53 3 57 32 14 347 334 302 15 9 354 350 355 0 4 6 359 337 352 353 330 259 223 235 241 240 243 243 245 248 248 246 245 246 246 246 244
128 200 295 33 28 4 45 306 359 345 11 15 334 332 252 277 329 332 328 330 337 344 344 338 338 339 349 11 311 275 238 241 246 244 243 244 245 248 247 246 248 249 249 248
135 153 240 48 326 325 253 233 11 331 334 343 347 300 276 306 311 314 314 318 324 328 330 329 339 331 323 337 346 297 331 262 247 237 243 244 246 248 248 251 255 257 254 253
203 236 268 10 327 337 174 304 323 321 312 308 287 266 281 300 304 306 306 306 310 312 314 317 319 319 306 309 312 322 304 289 236 238 231 238 249 252 250 252 258 260 260 258
144 234 269 18 20 89 312 321 314 308 303 299 292 288 283 295 300 304 300 298 297 298 298 298 302 306 303 300 307 302 312 307 283 262 234 226 239 248 256 260 257 262 263 263
178 216 174 270 305 307 303 303 313 309 302 296 293 286 284 301 302 300 295 292 289 287 287 285 288 294 295 294 292 295 295 299 281 283 248 239 250 248 258 263 255 258 259 261
15 292 244 307 301 314 311 312 316 323 304 295 295 288 295 308 305 306 303 295 288 279 274 276 279 283 280 285 288 285 286 285 288 276 291 257 248 259 268 253 251 255 257 257
260 280 282 283 262 301 308 315 322 335 319 302 301 288 299 303 301 307 299 295 290 281 265 258 261 268 269 273 278 278 282 282 286 283 282 290 263 261 266 264 259 258 262 261
222 224 209 263 292 302 291 308 322 325 333 313 302 299 291 299 301 303 308 302 288 273 262 253 250 252 257 257 268 274 277 278 278 280 284 289 292 266 259 267 270 265 263 262
227 242 248 282 290 299 288 298 299 321 337 324 317 304 300 291 293 296 300 296 293 270 258 249 249 249 249 254 259 261 274 277 276 277 283 288 280 275 268 267 270 266 260 256
246 256 273 276 281 310 310 312 310 313 335 329 326 311 310 293 302 295 294 297 298 264 257 249 247 247 246 250 254 252 262 272 272 271 266 266 271 273 272 274 269 265 260 259
242 247 265 287 291 309 315 319 311 317 333 354 349 341 321 306 303 299 302 297 300 279 245 242 247 248 245 241 247 255 260 268 267 267 267 267 263 257 252 255 260 264 264 256
243 249 262 272 290 298 312 317 308 323 335 318 335 349 333 313 315 304 302 303 299 284 261 256 252 252 249 249 250 253 258 263 262 263 261 261 259 257 254 243 250 256 257 259
235 253 285 274 297 315 309 305 303 317 331 333 338 325 337 328 322 317 306 313 305 285 273 263 258 250 248 250 251 255 258 260 264 265 259 259 262 259 254 252 247 252 257 258
264 267 275 302 289 300 307 319 309 321 325 338 335 334 331 332 329 324 318 309 313 300 262 266 260 258 254 254 252 255 261 269 268 271 255 254 253 250 247 247 246 246 249 250
268 268 271 280 279 291 304 301 313 320 329 338 353 359 346 344 340 333 328 317 320 315 292 280 269 260 259 253 250 256 265 269 262 259 248 247 246 250 250 246 246 244 244 244
275 268 266 270 275 281 300 299 295 327 322 342 360 21 24 18 14 16 16 4 341 327 312 298 281 259 257 257 251 264 259 242 240 240 242 246 250 245 240 242 245 241 236 231
270 265 267 266 275 290 291 295 273 307 315 351 13 22 30 30 26 19 18 14 3 354 341 337 319 291 265 246 233 243 231 227 221 224 226 233 229 222 217 215 223 219 219 217
258 259 254 253 270 277 294 273 273 294 332 4 15 27 29 25 22 20 23 19 18 11 16 9 8 29 37 269 163 186 181 191 187 189 194 206 208 202 206 206 200 196 192 190
252 252 259 258 257 251 269 246 258 348 23 16 26 35 33 28 25 30 28 28 25 28 28 27 43 70 69 73 76 90 91 102 144 138 130 152 179 178 175 169 172 169 169 171
259 258 265 234 232 243 220 213 147 93 95 26 33 33 25 20 26 24 29 20 19 33 37 33 48 70 70 69 68 67 67 71 78 84 90 121 132 145 141 141 143 150 149 146
306 249 253 256 225 205 189 173 152 146 104 100 49 34 29 18 22 23 24 27 32 27 36 39 44 53 67 74 75 76 69 68 70 75 76 94 108 114 113 118 123 129 125 124
283 292 261 272 262 210 172 166 150 141 123 321 358 359 3 20 23 30 35 33 34 39 37 41 41 48 55 61 68 74 78 80 78 84 87 91 82 87 93 99 105 107 108 112
297 300 275 223 98 163 162 161 195 184 195 23 59 44 51 48 35 44 49 47 43 41 48 46 46 47 52 55 58 61 66 71 68 68 65 66 68 77 82 87 88 92 95 98
Height
1528 1527 1525 1524 1525 1524 1527 1527 1531 1526 1526 1515 1509 1504 1499 1496 1494 1491 1492 1493 1493 1495 1497 1499 1501 1502 1504 1506 1506 1511 1516 1521 1524 1530 1536 1540 1544 1548 1552 1557 1561 1566 1570 1573
1529 1526 1524 1523 1522 1520 1521 1522 1521 1518 1520 1513 1510 1507 1502 1501 1499 1498 1497 1497 1496 1494 1495 1496 1497 1497 1497 1498 1501 1501 1507 1512 1519 1523 1528 1532 1536 1541 1545 1549 1553 1557 1561 1565
1535 1531 1524 1528 1526 1524 1524 1520 1520 1524 1522 1518 1514 1513 1512 1508 1504 1503 1502 1501 1499 1497 1496 1491 1499 1500 1499 1493 1492 1496 1498 1504 1510 1515 1519 1523 1527 1532 1536 1540 1544 1547 1552 1556
1542 1536 1551 1529 1527 1525 1522 1527 1526 1524 1525 1525 1522 1517 1514 1510 1507 1503 1501 1501 1500 1499 1496 1502 1501 1497 1495 1491 1489 1491 1493 1497 1502 1506 1510 1515 1519 1522 1526 1531 1534 1538 1542 1545
1549 1557 1536 1523 1532 1536 1537 1535 1532 1531 1529 1529 1519 1513 1509 1507 1505 1505 1503 1500 1499 1498 1498 1494 1494 1491 1489 1487 1486 1488 1491 1494 1495 1498 1501 1506 1509 1513 1517 1521 1525 1529 1533 1537
1545 1550 1545 1531 1532 1531 1534 1534 1534 1530 1530 1530 1530 1525 1507 1505 1502 1499 1498 1498 1495 1492 1490 1487 1486 1488 1485 1484 1485 1486 1486 1486 1488 1492 1494 1497 1501 1505 1509 1512 1517 1521 1524 1526
1536 1533 1530 1531 1528 1526 1533 1534 1531 1530 1526 1525 1526 1523 1513 1504 1498 1498 1494 1490 1490 1489 1486 1482 1482 1483 1484 1484 1485 1484 1482 1481 1482 1486 1489 1492 1495 1499 1502 1504 1509 1512 1515 1518
1545 1545 1546 1528 1527 1531 1529 1527 1527 1525 1522 1519 1517 1517 1512 1503 1496 1490 1486 1484 1483 1482 1478 1477 1477 1478 1476 1476 1478 1479 1477 1477 1478 1481 1484 1487 1490 1493 1495 1496 1500 1504 1506 1509
1540 1535 1524 1525 1527 1527 1527 1526 1523 1521 1517 1513 1507 1508 1506 1498 1492 1486 1481 1477 1477 1474 1472 1472 1472 1471 1467 1470 1473 1473 1472 1473 1472 1477 1478 1480 1483 1486 1489 1489 1491 1493 1496 1498
1536 1522 1520 1522 1523 1523 1522 1521 1519 1516 1510 1507 1499 1496 1494 1490 1486 1481 1477 1471 1470 1468 1462 1459 1463 1464 1464 1462 1464 1467 1468 1469 1470 1470 1470 1471 1474 1476 1476 1478 1480 1483 1485 1488
1529 1522 1520 1519 1519 1519 1518 1516 1513 1510 1505 1500 1494 1487 1486 1482 1480 1478 1473 1469 1463 1461 1459 1457 1459 1457 1459 1456 1459 1459 1460 1460 1461 1464 1464 1463 1465 1465 1465 1468 1470 1474 1476 1480
1525 1515 1517 1517 1516 1516 1514 1513 1509 1504 1498 1493 1488 1482 1479 1475 1472 1470 1467 1461 1453 1450 1450 1449 1451 1451 1451 1450 1450 1448 1449 1451 1453 1454 1454 1453 1449 1459 1456 1460 1463 1466 1470 1472
1512 1512 1513 1512 1512 1510 1510 1508 1505 1501 1495 1487 1482 1477 1472 1469 1464 1460 1458 1453 1445 1439 1439 1442 1442 1442 1443 1444 1442 1440 1437 1440 1443 1444 1442 1437 1448 1445 1448 1452 1454 1457 1460 1464
1509 1510 1509 1507 1506 1505 1503 1501 1499 1496 1491 1484 1477 1472 1466 1462 1458 1454 1449 1445 1440 1434 1431 1433 1434 1434 1436 1434 1434 1431 1429 1431 1433 1437 1439 1441 1439 1437 1435 1439 1446 1449 1452 1455
1504 1504 1502 1503 1502 1500 1499 1497 1494 1491 1485 1480 1474 1468 1462 1457 1452 1448 1443 1438 1434 1431 1428 1424 1425 1425 1425 1425 1424 1420 1426 1424 1425 1426 1428 1431 1436 1435 1438 1439 1441 1443 1444 1446
1500 1499 1498 1497 1496 1496 1495 1492 1489 1485 1480 1475 1469 1463 1457 1452 1447 1442 1439 1434 1429 1425 1422 1420 1419 1419 1417 1415 1413 1416 1417 1419 1419 1418 1420 1424 1428 1430 1432 1431 1431 1433 1435 1436
1496 1495 1494 1493 1492 1491 1490 1487 1485 1482 1477 1472 1466 1458 1452 1447 1441 1437 1432 1428 1423 1419 1416 1414 1411 1412 1411 1410 1410 1410 1409 1408 1407 1408 1411 1413 1416 1418 1418 1417 1418 1422 1425 1428
1490 1490 1490 1489 1488 1487 1485 1484 1482 1479 1475 1471 1464 1457 1449 1443 1438 1432 1425 1420 1415 1412 1411 1408 1405 1405 1402 1401 1400 1399 1398 1397 1398 1399 1403 1403 1408 1410 1408 1408 1410 1412 1416 1419
1487 1486 1486 1486 1485 1484 1482 1480 1479 1477 1474 1469 1463 1456 1449 1443 1436 1429 1422 1417 1413 1407 1403 1398 1396 1390 1390 1390 1389 1387 1385 1387 1389 1391 1388 1393 1399 1398 1398 1397 1401 1403 1407 1411
1482 1482 1483 1482 1481 1480 1478 1476 1476 1474 1471 1468 1463 1457 1449 1443 1437 1430 1423 1417 1412 1405 1398 1393 1390 1388 1386 1383 1382 1381 1380 1378 1378 1381 1385 1390 1384 1388 1387 1387 1392 1394 1397 1401
1479 1479 1479 1479 1477 1476 1474 1474 1473 1472 1470 1467 1464 1459 1452 1446 1439 1432 1425 1417 1409 1402 1396 1391 1387 1383 1381 1379 1377 1376 1375 1373 1372 1374 1379 1379 1378 1378 1378 1378 1385 1385 1387 1391
1476 1475 1475 1475 1474 1473 1472 1471 1470 1470 1469 1467 1465 1461 1455 1449 1442 1436 1429 1422 1413 1405 1396 1391 1385 1381 1377 1376 1372 1370 1369 1369 1369 1371 1371 1369 1370 1371 1368 1374 1378 1380 1380 1384
1471 1471 1471 1471 1471 1470 1470 1469 1468 1469 1468 1467 1465 1462 1458 1452 1447 1440 1433 1428 1421 1411 1402 1394 1388 1382 1377 1374 1372 1371 1368 1366 1366 1367 1369 1370 1366 1367 1370 1367 1370 1372 1379 1382
1467 1466 1466 1466 1466 1467 1466 1467 1467 1468 1468 1467 1465 1463 1460 1456 1452 1447 1441 1435 1429 1421 1411 1403 1394 1385 1382 1377 1374 1371 1368 1367 1369 1371 1376 1373 1373 1367 1363 1369 1372 1375 1382 1383
1462 1463 1466 1466 1463 1463 1464 1465 1466 1467 1468 1468 1466 1464 1461 1458 1454 1450 1445 1441 1434 1428 1422 1414 1406 1397 1390 1386 1381 1376 1378 1377 1382 1378 1395 1379 1400 1358 1360 1369 1379 1387 1388 1395
1462 1460 1463 1464 1462 1461 1463 1465 1467 1467 1468 1467 1466 1465 1462 1460 1457 1453 1449 1445 1441 1435 1430 1425 1419 1412 1406 1399 1394 1391 1388 1385 1391 1400 1409 1404 1373 1362 1371 1383 1396 1394 1395 1402
1463 1463 1462 1463 1462 1461 1463 1466 1467 1467 1468 1468 1468 1466 1464 1462 1459 1456 1453 1449 1446 1442 1439 1435 1431 1425 1419 1414 1410 1408 1405 1403 1406 1402 1405 1393 1394 1390 1392 1397 1403 1405 1406 1413